FW1461 Weather Reports


time (UTC)temp
F
wind
direction
speed
knots
gust
knots
rain 1hr
in
rain 24hr
in
rain mn
in
humidity
%
barometer
mb
20260505100047 54 74 0.9 3.5 0.00 0.00 0.00 56 1007.9
20260505094544 53 86 0.9 4.3 0.00 0.00 0.00 55 1008.0
20260505093050 53 76 0.0 2.6 0.00 0.00 0.00 57 1008.1
20260505091543 53 71 0.0 4.3 0.00 0.00 0.00 57 1008.2
20260505090043 53 44 0.0 1.7 0.00 0.00 0.00 57 1007.9
20260505084547 54 50 0.0 2.6 0.00 0.00 0.00 57 1008.0
20260505083048 53 31 0.9 5.2 0.00 0.00 0.00 56 1007.7
20260505081548 54 95 0.9 3.5 0.00 0.00 0.00 59 1007.1
20260505080039 53 44 0.0 2.6 0.00 0.00 0.00 59 1006.8
20260505074538 53 28 0.9 2.6 0.00 0.00 0.00 62 1006.6
20260505073038 52 65 0.9 3.5 0.00 0.00 0.00 70 1006.6
20260505071537 51 81 0.0 2.6 0.00 0.00 0.00 78 1006.6
20260505070043 51 53 0.0 0.9 0.00 0.00 0.00 82 1006.7
20260505064535 52 39 0.0 0.0 0.00 0.00 0.00 81 1007.5
20260505063034 52 71 0.0 0.9 0.00 0.00 0.00 77 1006.5
20260505061527 55 44 0.9 3.5 0.00 0.00 0.00 70 1007.9
20260505060028 59 5 0.9 6.1 0.00 0.00 0.00 61 1007.7
20260505054518 63 51 1.7 15.6 0.00 0.00 0.00 43 1005.9
20260505053019 64 54 1.7 11.3 0.00 0.00 0.00 42 1005.4
20260505051516 66 49 0.9 8.7 0.00 0.00 0.00 41 1005.0
20260505050113 67 59 0.9 8.7 0.00 0.00 0.00 41 1004.4
20260505041504 70 56 0.0 7.8 0.00 0.00 0.00 42 1003.9
20260505040003 71 26 1.7 11.3 0.00 0.00 0.00 41 1003.1
20260505034502 70 54 0.0 2.6 0.00 0.00 0.00 46 1003.5
20260505033002 69 22 0.0 2.6 0.00 0.00 0.00 63 1003.1
20260505031501 68 41 0.0 0.0 0.00 0.00 0.00 71 1002.9
20260505030003 69 191 0.0 0.0 0.00 0.00 0.00 70 1002.1
20260505024600 69 180 0.0 0.0 0.00 0.00 0.00 69 1001.8
20260505023103 69 188 0.0 0.0 0.00 0.00 0.00 68 1001.7
20260505021600 70 173 0.0 0.0 0.00 0.00 0.00 68 1001.4
20260505020100 70 173 0.0 1.7 0.00 0.00 0.00 68 1001.4
20260505014558 70 182 0.0 0.9 0.00 0.00 0.00 68 1001.2
20260505013101 71 165 0.0 0.0 0.00 0.00 0.00 69 1000.9
20260505011611 72 236 0.0 0.0 0.00 0.00 0.00 68 1000.8
20260505010057 75 236 0.0 0.0 0.00 0.00 0.00 68 1000.5
20260505004610 76 236 0.0 0.0 0.00 0.00 0.00 63 1000.4
20260505003057 78 236 0.0 0.0 0.00 0.00 0.00 63 1000.5
20260505001613 78 237 0.0 0.0 0.00 0.00 0.00 58 1000.5
20260505000107 79 237 0.0 0.0 0.00 0.00 0.00 56 1000.6
20260504234556 79 202 0.0 0.0 0.00 0.00 0.00 51 1000.6
20260504233106 80 214 0.0 0.0 0.00 0.00 0.00 48 1000.8
20260504231550 80 237 0.0 0.0 0.00 0.00 0.00 46 1000.7
20260504230052 80 238 0.0 2.6 0.00 0.00 0.00 45 1000.7
20260504224549 80 211 0.0 1.7 0.00 0.00 0.00 43 1000.6
20260504223049 81 232 0.9 2.6 0.00 0.00 0.00 42 1000.6
20260504221548 82 360 0.0 6.1 0.00 0.00 0.00 42 1000.6
20260504220048 83 215 0.0 7.0 0.00 0.00 0.00 43 1000.7
20260504214547 82 266 0.0 0.0 0.00 0.00 0.00 39 1000.8
20260504213049 84 266 0.0 1.7 0.00 0.00 0.00 39 1000.8
20260504211544 84 190 0.0 0.9 0.00 0.00 0.00 40 1000.8
20260504210043 83 170 0.0 6.1 0.00 0.00 0.00 40 1001.1
20260504204542 82 226 0.0 9.6 0.00 0.00 0.00 41 1001.4
20260504203047 82 223 0.0 11.3 0.00 0.00 0.00 41 1001.6
20260504201541 84 213 0.9 7.0 0.00 0.00 0.00 42 1001.4
20260504200039 83 271 0.0 2.6 0.00 0.00 0.00 40 1001.6
20260504194538 83 197 0.0 7.0 0.00 0.00 0.00 39 1001.7
20260504193037 82 220 0.9 2.6 0.00 0.00 0.00 40 1001.8
20260504191535 83 236 0.0 5.2 0.00 0.00 0.00 40 1001.6
20260504190037 82 360 0.9 4.3 0.00 0.00 0.00 40 1001.7
20260504184533 83 360 0.0 5.2 0.00 0.00 0.00 44 1001.7
20260504183030 83 360 0.0 4.3 0.00 0.00 0.00 44 1001.8
20260504181529 82 360 0.0 3.5 0.00 0.00 0.00 46 1001.8
20260504180027 82 192 0.0 4.3 0.00 0.00 0.00 43 1001.9
20260504174526 81 297 0.0 0.9 0.00 0.00 0.00 42 1002.0
20260504173024 81 305 0.0 0.9 0.00 0.00 0.00 42 1002.0
20260504171531 80 360 0.0 7.0 0.00 0.00 0.00 43 1002.2